Weather Roundup
Issued by NWS Chicago, IL

Home | Current Version | Previous Version | Graphics & Text | Print | Product List | Glossary On
Versions: 1 2 3 4 5 6 7 8 9 10 11 12 13 14 15 16 17 18 19 20 21 22 23 24 25 26 27 28 29 30 31 32 33 34 35 36 37 38 39 40 41 42 43 44 45 46 47 48 49 50
000
NZUS59 KLOT 051603
HRRLOT

CHICAGO AREA WEATHER ROUNDUP
NATIONAL WEATHER SERVICE CHICAGO/ROMEOVILLE IL
1100 AM CDT THU MAY 05 2016

NOTE: "FAIR" INDICATES FEW OR NO CLOUDS BELOW 12,000 FEET WITH NO
SIGNIFICANT WEATHER AND/OR OBSTRUCTIONS TO VISIBILITY.

* THESE STATIONS ARE NOT UNDER NWS QUALITY CONTROL. THEY ALSO MAY NOT
  REPORT WEATHER SUCH AS PRECIPITATION OR FOG.

ILZ005-006-012>014-019>023-051700-
NORTHEAST ILLINOIS

CITY           SKY/WX    TMP DP  RH WIND       PRES   REMARKS
OHARE          SUNNY     54  40  59 NE15      30.01R
MIDWAY         SUNNY     54  40  59 N13       30.01R
AURORA         SUNNY     56  43  61 N13       30.02R
LANSING*       MOSUNNY   47  40  75 N16       30.01R
WAUKEGAN       SUNNY     53  41  63 N9        30.02R
DUPAGE AIRPORT SUNNY     55  40  56 N13       30.01R
WHEELING       SUNNY     54  41  61 N10G17    30.03R
MORRIS*        SUNNY     55  43  62 N5        30.00S
$$

WIZ051-052-058>065-066-070>072-051700-
SOUTHEAST WISCONSIN

CITY           SKY/WX    TMP DP  RH WIND       PRES   REMARKS
MILWAUKEE      SUNNY     50  39  66 N8        30.04R
KENOSHA*       SUNNY     53  40  61 N12       30.03R
RACINE*        SUNNY     49  38  65 N17       30.05R
BURLINGTON     SUNNY     53  38  56 N8        30.02F
WAUKESHA       SUNNY     54  37  54 N6        30.04S
$$

INZ001>003-010>013-019-020-051700-
NORTHWEST INDIANA

CITY           SKY/WX    TMP DP  RH WIND       PRES   REMARKS
GARY*          PTSUNNY   48  45  87 N17G29    30.03R
MICHIGAN CITY* NOT AVBL
RENSSELAER*    NOT AVBL
VALPARAISO     PTSUNNY   48  41  76 N12G22    29.98S
$$

LMZ740>746-051700-
SOUTHERN LAKE MICHIGAN

STATION/POSITION TIME  SKY/WX   TEMP WIND        PRES    VSBY
                                AIR  DIR/SP/G
                 (UTC)          (F)  (DEG/KT/KT) (MB)    (MI)
HARRISON CRIB    1500            43  350/ 22/ 24   N/A
BURNHAM HARBOR   1600            46  360/ 13/ 19   N/A
CALUMET HARBOR   1500            44  340/ 17/ 21 1015.7R
BURNS HARBOR     1516            42  360/ 15/ 19 1016.6R
MICHIGAN CITY    1500            42  350/ 15/ 18   N/A
$$

ABBREVIATIONS USED IN REMARKS
   TC - TEMPERATURE IN CELSIUS
  WCI - WIND CHILL INDEX
   HX - HEAT INDEX
  VSB - VISIBILITY
$$



USA.gov is the U.S. government's official web portal to all federal, state and local government web resources and services.